STARLINK-30528, 57967

Orbit data source: Space-Track

STARLINK-30528, 57967 is a payload satellite owned by SpaceX/Seattle (US) in LEO that was launched on Sat, 30 Sep 2023 UTC via an FALCON 9 launch vehicle from the Air Force Eastern Test Range (AFETR). Payload-class satellites include a variety of spacecraft equipped with specific instruments for various scientific and technological missions. These include communications satellites like Starlink; space stations such as the ISS; scientific satellites like the Hubble; Earth observation satellites from companies like Planet Labs, Umbra, and HawkEye 360; GPS; miniature CubeSats for education and research; and military/defense satellites.

Loading next visibility...
Identifier
57967, 2023-151D
Orbit
LEO
Country
Flag of USUS
Related business
Manufacturer
SpaceX/Seattle
Mission
Operational Commercial Communications
Bus & Motor
STARLINK V2M, Unknown motor
Mass
730 kg wet, ~700 kg dry
Launch date (UTC)
2023-09-30 (3 years ago)
Launch vehicle
FALCON 9
Launch site
Air Force Eastern Test Range (AFETR)
Object type
Payload
Rocket body
Debris
Shape & HBR
Box + 2 Pan, 17.7 m
Radar Cross Section
33.884 m², Large (>1 m²)

Expand to show TLE details & history
Last TLE update: 20 hours ago

TLE from 20 hours ago
0 STARLINK-30528
1 57967U 23151D   26236.63642860  .00008543  00000-0  32015-3 0  9994
2 57967  43.0046 107.3643 0001269 261.0732  98.9976 15.27526232161456
Epoch: 2026-08-24T15:16Z
TLE epoch observation values (Epoch: 2026-08-24T15:16:27.431Z)
Latitude
-0°
Longitude
-94.66528°
Altitude
483.122 km
Speed
7.626 km/s
True Right ascension
07h 09m 27s
True Declination
0° 00' 00"
Sunlit
Object was in daylight at epoch
Visualization orbit readout
Latitude
Unknown
Longitude
Unknown
Altitude
Unknown
Speed
Unknown
Apparent Right ascension
Unknown
Apparent Declination
Unknown
Sunlit
N/A
Visualization observer readout
Local Sidereal Time
02:29:45
Azimuth
Unknown
Elevation
Unknown
Doppler factor
Unknown
Orbital elements
Apogee altitude
486.025 km
Perigee altitude
484.284 km
Semi-major axis
6,863.291 km
Eccentricity
0.00013
Inclination
43.0046°
RAAN
107.3643°
Arg. of periapsis
261.0732°
True anomaly
99.01196°
Mean anomaly
98.9976°
Eccentric anomaly
99.00478°
Mean motion
3.8172 °/min
Orbital period
94.31 mins
BSTAR
0.00032015
Loading maneuver chart data...
Computing Atmospheric mass density...
Loading historical data...
Loading historical data...
Loading historical data...
Loading historical data...
Loading historical data...
Loading historical data...
Loading historical data...

Documentation

Showing up to 5 results
|